Tracking 25693 objects as of 1-Jul-2022
HD Live streaming from Space Station
objects crossing your sky now

SL-8 DEB *

Track SL-8 DEB * now!
10-day predictions


NORAD ID: 18504
Int'l Code: 1976-098E
Perigee: 643.4 km
Apogee: 658.5 km
Inclination: 74.0 °
Period: 97.6 minutes
Semi major axis: 7021 km
RCS: 0.0123 m2 (small)
Launch date: September 29, 1976
Source: Commonwealth of Independent States (former USSR) (CIS)
Launch site: PLESETSK MISSILE AND SPACE COMPLEX (PKMTR)

Note: This is SATELLITE DEBRIS
aabbcc
Your satellite tracking list
Your tracking list is empty




NASA's NSSDC Master Catalog

Two Line Element Set (TLE):
1 18504U 76098E   22182.43135598  .00001011  00000-0  15362-3 0  9994
2 18504  74.0352 190.6487 0010729 359.7214  70.7278 14.75424855980368
Source of the keplerian elements: AFSPC